Tracking 17844 objects as of 26-August-2016
HD Live streaming from Space Station
objects crossing your sky now

INTELSAT 705

Track INTELSAT 705 now!
INTELSAT 705 is classified as:


NORAD ID: 23528
Int'l Code: 1995-013A
Perigee: 36,094.9 km
Apogee: 36,226.5 km
Inclination: 5.4 °
Period: 1,454.9 minutes
Semi major axis: 42531 km
RCS: 12.1482 m2 (large)
Launch date: March 22, 1995
Source: International Telecommunications Satellite Organization (ITSO)
Launch site: AIR FORCE EASTERN TEST RANGE (AFETR)

42 C-band, 24 Ku-band; broadcasting, business services, direct-to-home TV broadcasting, telecommunications, VSATnetworks; Atlantic Ocean region.
Your satellite tracking list
Your tracking list is empty





NASA's NSSDC Master Catalog

Two Line Element Set (TLE):
1 23528U 95013A   16237.83287189 -.00000271 +00000-0 +00000-0 0  9994
2 23528 005.3854 059.6113 0015480 028.8365 349.3644 00.98976917078073
Source of the keplerian elements: AFSPC

N2YO: 463